Time,TemperatureF,DewpointF,PressureIn,WindDirection,WindDirectionDegrees,WindSpeedMPH,WindSpeedGustMPH,Humidity,HourlyPrecipIn,Conditions,Clouds,dailyrainin,SolarRadiationWatts/m^2,SoftwareType,DateUTC
2013-11-18 00:00:00,46.1,46.1,29.82,NE,51,7.0,12.0,100,0.09,,OVC009,0.00,0.00,VWS V14.01,2013-11-18 05:00:00,
2013-11-18 00:10:00,46.2,46.2,29.82,ENE,60,5.0,10.0,100,0.09,,OVC002,0.00,0.00,VWS V14.01,2013-11-18 05:10:00,
2013-11-18 00:20:00,46.1,46.1,29.82,ENE,72,5.0,11.0,100,0.08,,OVC002,0.01,0.00,VWS V14.01,2013-11-18 05:20:00,
2013-11-18 00:30:00,46.2,46.2,29.80,NE,38,5.0,9.0,100,0.07,,OVC002,0.01,0.00,VWS V14.01,2013-11-18 05:30:00,
2013-11-18 00:40:00,46.4,46.4,29.80,NE,51,8.0,10.0,100,0.06,,OVC002,0.02,0.00,VWS V14.01,2013-11-18 05:40:00,
2013-11-18 00:50:00,46.5,46.5,29.78,NE,56,6.0,10.0,100,0.04,,OVC002,0.02,0.00,VWS V14.01,2013-11-18 05:50:00,
2013-11-18 01:00:00,46.5,46.5,29.77,NE,55,9.0,10.0,100,0.03,,OVC002,0.02,0.00,VWS V14.01,2013-11-18 06:00:00,
2013-11-18 01:10:00,46.4,46.4,29.77,NE,47,9.0,11.0,100,0.03,,OVC008,0.03,0.00,VWS V14.01,2013-11-18 06:10:00,
2013-11-18 01:20:00,46.5,46.5,29.76,ENE,63,8.0,12.0,100,0.03,,OVC008,0.03,0.00,VWS V14.01,2013-11-18 06:20:00,
2013-11-18 01:30:00,46.7,46.7,29.75,NE,44,10.0,12.0,100,0.02,,OVC008,0.03,0.00,VWS V14.01,2013-11-18 06:30:00,
2013-11-18 01:40:00,47.0,47.0,29.75,NE,38,7.0,11.0,100,0.03,,OVC008,0.04,0.00,VWS V14.01,2013-11-18 06:40:00,
2013-11-18 01:50:00,47.1,47.1,29.73,ENE,73,6.0,11.0,100,0.02,,OVC008,0.04,0.00,VWS V14.01,2013-11-18 06:50:00,
2013-11-18 02:00:00,47.4,47.4,29.72,NE,45,6.0,11.0,100,0.03,,OVC008,0.05,0.00,VWS V14.01,2013-11-18 07:00:00,
2013-11-18 02:10:00,47.6,47.6,29.72,ENE,58,11.0,14.0,100,0.04,,OVC004,0.06,0.00,VWS V14.01,2013-11-18 07:10:00,
2013-11-18 02:20:00,47.9,47.9,29.69,NE,42,10.0,12.0,100,0.04,,OVC004,0.07,0.00,VWS V14.01,2013-11-18 07:20:00,
2013-11-18 02:30:00,48.3,48.3,29.68,SE,124,7.0,12.0,100,0.04,,OVC004,0.07,0.00,VWS V14.01,2013-11-18 07:30:00,
2013-11-18 02:40:00,48.5,48.5,29.68,NE,46,10.0,14.0,100,0.04,,OVC004,0.07,0.00,VWS V14.01,2013-11-18 07:40:00,
2013-11-18 02:50:00,48.9,48.9,29.66,ENE,62,6.0,15.0,100,0.03,,OVC004,0.07,0.00,VWS V14.01,2013-11-18 07:50:00,
2013-11-18 03:00:00,49.2,49.2,29.64,East,80,7.0,12.0,100,0.03,,OVC004,0.07,0.00,VWS V14.01,2013-11-18 08:00:00,
2013-11-18 03:10:00,49.5,49.5,29.64,NE,55,7.0,11.0,100,0.02,,OVC027,0.07,0.00,VWS V14.01,2013-11-18 08:10:00,
2013-11-18 03:20:00,49.6,49.6,29.62,NE,46,6.0,13.0,100,0.01,,OVC027,0.07,0.00,VWS V14.01,2013-11-18 08:20:00,
2013-11-18 03:30:00,49.8,49.8,29.62,NNE,27,2.0,8.0,100,0.00,,OVC027,0.07,0.00,VWS V14.01,2013-11-18 08:30:00,
2013-11-18 03:40:00,49.5,49.5,29.62,NE,45,2.0,6.0,100,0.00,,OVC027,0.07,0.00,VWS V14.01,2013-11-18 08:40:00,
2013-11-18 03:50:00,49.6,49.6,29.59,NE,53,2.0,6.0,100,0.00,,OVC027,0.07,0.00,VWS V14.01,2013-11-18 08:50:00,
2013-11-18 04:00:00,50.1,50.1,29.59,ENE,70,3.0,5.0,100,0.00,,OVC027,0.07,0.00,VWS V14.01,2013-11-18 09:00:00,
2013-11-18 04:10:00,49.8,49.8,29.59,East,91,2.0,4.0,100,0.00,,OVC016,0.07,0.00,VWS V14.01,2013-11-18 09:10:00,
2013-11-18 04:20:00,50.4,50.4,29.56,East,88,2.0,6.0,100,0.00,,OVC016,0.07,0.00,VWS V14.01,2013-11-18 09:20:00,
2013-11-18 04:30:00,51.4,51.4,29.54,NE,56,0.0,4.0,100,0.00,,OVC016,0.07,0.00,VWS V14.01,2013-11-18 09:30:00,
2013-11-18 04:40:00,52.9,52.9,29.54,WNW,297,2.0,4.0,100,0.00,,OVC016,0.07,0.00,VWS V14.01,2013-11-18 09:40:00,
2013-11-18 04:50:00,55.7,55.7,29.52,NW,319,5.0,7.0,100,0.00,,OVC016,0.07,0.00,VWS V14.01,2013-11-18 09:50:00,
2013-11-18 05:00:00,56.2,56.2,29.50,WNW,295,0.0,5.0,100,0.00,,OVC016,0.07,0.00,VWS V14.01,2013-11-18 10:00:00,
2013-11-18 05:10:00,56.9,56.9,29.50,SW,235,3.0,4.0,100,0.00,,OVC017,0.07,0.00,VWS V14.01,2013-11-18 10:10:00,
2013-11-18 05:20:00,56.9,56.9,29.48,WNW,290,6.0,7.0,100,0.01,,OVC017,0.08,0.00,VWS V14.01,2013-11-18 10:20:00,
2013-11-18 05:30:00,57.6,57.6,29.46,West,263,4.0,12.0,100,0.02,,OVC017,0.09,0.00,VWS V14.01,2013-11-18 10:30:00,
2013-11-18 05:40:00,58.3,58.3,29.46,WNW,285,2.0,9.0,100,0.05,,OVC017,0.12,0.00,VWS V14.01,2013-11-18 10:40:00,
2013-11-18 05:50:00,58.6,58.6,29.44,NW,326,3.0,11.0,100,0.09,,OVC017,0.16,0.00,VWS V14.01,2013-11-18 10:50:00,
2013-11-18 06:10:00,58.9,58.9,29.43,West,263,13.0,18.0,100,0.14,,OVC020,0.21,0.00,VWS V14.01,2013-11-18 11:10:00,
2013-11-18 06:20:00,58.9,58.9,29.43,WSW,257,5.0,19.0,100,0.14,,OVC020,0.21,0.00,VWS V14.01,2013-11-18 11:20:00,
2013-11-18 06:30:00,59.0,59.0,29.42,West,280,7.0,13.0,100,0.14,,OVC020,0.22,0.00,VWS V14.01,2013-11-18 11:30:00,
2013-11-18 06:40:00,57.6,57.3,29.42,WSW,238,18.0,34.0,99,0.19,,OVC020,0.28,0.00,VWS V14.01,2013-11-18 11:40:00,
2013-11-18 06:50:00,55.4,54.0,29.48,West,275,24.0,36.0,95,0.19,,OVC020,0.31,0.00,VWS V14.01,2013-11-18 11:50:00,
2013-11-18 07:10:00,54.7,53.6,29.48,WSW,245,9.0,18.0,96,0.16,,OVC020,0.32,5.00,VWS V14.01,2013-11-18 12:10:00,
2013-11-18 07:20:00,54.5,54.0,29.48,SSW,200,2.0,12.0,98,0.11,,OVC020,0.32,12.00,VWS V14.01,2013-11-18 12:20:00,
2013-11-18 07:30:00,53.9,53.9,29.46,South,179,0.0,3.0,100,0.11,,OVC020,0.32,11.00,VWS V14.01,2013-11-18 12:30:00,
2013-11-18 07:40:00,53.6,53.6,29.46,South,179,0.0,0.0,100,0.11,,OVC020,0.33,9.00,VWS V14.01,2013-11-18 12:40:00,
2013-11-18 07:50:00,53.6,53.6,29.46,South,179,0.0,1.0,100,0.05,,OVC020,0.33,14.00,VWS V14.01,2013-11-18 12:50:00,
2013-11-18 08:00:00,53.6,53.6,29.45,South,179,1.0,2.0,100,0.02,,OVC020,0.33,12.00,VWS V14.01,2013-11-18 13:00:00,
2013-11-18 08:10:00,53.6,53.6,29.45,WSW,252,6.0,10.0,100,0.01,,OVC020,0.33,40.00,VWS V14.01,2013-11-18 13:10:00,
2013-11-18 08:20:00,53.3,53.3,29.48,WSW,239,0.0,7.0,100,0.02,,OVC020,0.34,16.00,VWS V14.01,2013-11-18 13:20:00,
2013-11-18 08:30:00,53.3,53.3,29.46,SW,231,0.0,12.0,100,0.03,,OVC020,0.35,21.00,VWS V14.01,2013-11-18 13:30:00,
2013-11-18 08:40:00,53.2,53.2,29.46,SW,226,3.0,17.0,100,0.03,,OVC075,0.35,35.00,VWS V14.01,2013-11-18 13:40:00,
2013-11-18 08:50:00,52.9,52.6,29.46,WSW,238,2.0,6.0,99,0.02,,OVC075,0.35,67.00,VWS V14.01,2013-11-18 13:50:00,
2013-11-18 09:00:00,52.9,52.3,29.46,South,184,1.0,10.0,98,0.02,,OVC075,0.35,39.00,VWS V14.01,2013-11-18 14:00:00,
2013-11-18 09:10:00,53.3,52.5,29.46,WSW,248,4.0,9.0,97,0.02,,BKN095,0.35,100.00,VWS V14.01,2013-11-18 14:10:00,
2013-11-18 09:20:00,53.5,52.7,29.46,WSW,255,6.0,14.0,97,0.02,,BKN095,0.35,76.00,VWS V14.01,2013-11-18 14:20:00,
2013-11-18 09:30:00,53.5,51.5,29.47,WSW,245,3.0,14.0,93,0.01,,BKN095,0.35,158.00,VWS V14.01,2013-11-18 14:30:00,
2013-11-18 09:40:00,53.8,51.5,29.47,WSW,258,6.0,15.0,92,0.00,,BKN095,0.35,213.00,VWS V14.01,2013-11-18 14:40:00,
2013-11-18 09:50:00,54.5,49.8,29.47,WSW,255,15.0,15.0,84,0.00,,BKN095,0.35,373.00,VWS V14.01,2013-11-18 14:50:00,
2013-11-18 10:00:00,55.0,50.9,29.48,WSW,248,10.0,18.0,86,0.00,,BKN095,0.35,480.00,VWS V14.01,2013-11-18 15:00:00,
2013-11-18 10:10:00,56.5,50.1,29.48,WSW,247,17.0,21.0,79,0.00,,CLR,0.35,561.00,VWS V14.01,2013-11-18 15:10:00,
2013-11-18 10:20:00,56.9,49.4,29.47,WNW,283,17.0,28.0,76,0.00,,CLR,0.35,102.00,VWS V14.01,2013-11-18 15:20:00,
2013-11-18 10:30:00,55.9,47.0,29.47,West,277,14.0,22.0,72,0.00,,CLR,0.35,62.00,VWS V14.01,2013-11-18 15:30:00,
2013-11-18 10:40:00,56.6,46.9,29.47,WNW,295,14.0,18.0,70,0.00,,CLR,0.35,109.00,VWS V14.01,2013-11-18 15:40:00,
2013-11-18 10:50:00,55.6,46.4,29.47,West,276,13.0,18.0,71,0.00,,CLR,0.35,42.00,VWS V14.01,2013-11-18 15:50:00,
2013-11-18 11:00:00,54.5,45.7,29.47,West,273,11.0,18.0,72,0.00,,CLR,0.35,40.00,VWS V14.01,2013-11-18 16:00:00,
2013-11-18 11:10:00,53.9,44.7,29.47,West,273,13.0,18.0,71,0.00,,OVC050,0.35,56.00,VWS V14.01,2013-11-18 16:10:00,
2013-11-18 11:20:00,54.2,42.3,29.46,West,259,13.0,30.0,64,0.00,,OVC050,0.35,76.00,VWS V14.01,2013-11-18 16:20:00,
2013-11-18 11:30:00,55.6,44.4,29.47,West,274,17.0,23.0,66,0.00,,OVC050,0.35,139.00,VWS V14.01,2013-11-18 16:30:00,
2013-11-18 11:40:00,55.4,43.8,29.47,West,259,19.0,24.0,65,0.00,,OVC050,0.35,172.00,VWS V14.01,2013-11-18 16:40:00,
2013-11-18 11:50:00,56.2,43.8,29.46,WSW,248,20.0,25.0,63,0.00,,OVC050,0.35,214.00,VWS V14.01,2013-11-18 16:50:00,
2013-11-18 12:00:00,57.0,42.4,29.46,West,265,15.0,24.0,58,0.00,,OVC050,0.35,295.00,VWS V14.01,2013-11-18 17:00:00,
2013-11-18 12:10:00,57.5,39.5,29.46,West,273,25.0,34.0,51,0.00,,OVC050,0.35,102.00,VWS V14.01,2013-11-18 17:10:00,
2013-11-18 12:20:00,57.6,40.1,29.45,West,264,20.0,30.0,52,0.00,,OVC050,0.35,93.00,VWS V14.01,2013-11-18 17:20:00,
2013-11-18 12:30:00,57.5,41.5,29.46,WSW,257,14.0,26.0,55,0.00,,OVC050,0.35,271.00,VWS V14.01,2013-11-18 17:30:00,
2013-11-18 12:40:00,57.6,40.1,29.46,West,267,15.0,28.0,52,0.00,,OVC050,0.35,357.00,VWS V14.01,2013-11-18 17:40:00,
2013-11-18 12:50:00,57.6,41.1,29.46,West,268,16.0,20.0,54,0.00,,OVC050,0.35,104.00,VWS V14.01,2013-11-18 17:50:00,
2013-11-18 13:00:00,58.1,40.6,29.46,West,275,9.0,23.0,52,0.00,,OVC050,0.35,35.00,VWS V14.01,2013-11-18 18:00:00,
2013-11-18 13:10:00,58.0,41.9,29.46,West,269,15.0,17.0,55,0.00,,CLR,0.35,162.00,VWS V14.01,2013-11-18 18:10:00,
2013-11-18 13:20:00,58.0,40.5,29.46,WNW,286,7.0,20.0,52,0.00,,CLR,0.35,178.00,VWS V14.01,2013-11-18 18:20:00,
2013-11-18 13:30:00,57.0,42.8,29.46,West,274,6.0,13.0,59,0.00,,CLR,0.35,269.00,VWS V14.01,2013-11-18 18:30:00,
2013-11-18 13:40:00,57.8,41.3,29.46,WNW,300,4.0,14.0,54,0.00,,CLR,0.35,237.00,VWS V14.01,2013-11-18 18:40:00,
2013-11-18 13:50:00,57.5,40.5,29.46,West,268,10.0,14.0,53,0.00,,CLR,0.35,151.00,VWS V14.01,2013-11-18 18:50:00,
2013-11-18 14:00:00,58.0,41.9,29.46,WNW,288,9.0,11.0,55,0.00,,CLR,0.35,33.00,VWS V14.01,2013-11-18 19:00:00,
2013-11-18 14:10:00,58.1,40.6,29.46,West,274,14.0,16.0,52,0.00,,CLR,0.35,32.00,VWS V14.01,2013-11-18 19:10:00,
2013-11-18 14:20:00,56.3,43.0,29.47,West,268,8.0,16.0,61,0.00,,CLR,0.35,33.00,VWS V14.01,2013-11-18 19:20:00,
2013-11-18 14:30:00,57.8,39.8,29.47,West,262,16.0,25.0,51,0.00,,CLR,0.35,35.00,VWS V14.01,2013-11-18 19:30:00,
2013-11-18 14:40:00,57.5,38.0,29.47,WSW,256,15.0,24.0,48,0.00,,CLR,0.35,35.00,VWS V14.01,2013-11-18 19:40:00,
2013-11-18 14:50:00,57.0,38.0,29.47,West,259,9.0,18.0,49,0.00,,CLR,0.35,35.00,VWS V14.01,2013-11-18 19:50:00,
2013-11-18 15:00:00,57.0,39.1,29.47,WNW,288,12.0,16.0,51,0.00,,CLR,0.35,42.00,VWS V14.01,2013-11-18 20:00:00,
2013-11-18 15:10:00,57.0,40.1,29.47,WSW,257,8.0,15.0,53,0.00,,CLR,0.35,44.00,VWS V14.01,2013-11-18 20:10:00,
2013-11-18 15:20:00,56.5,38.6,29.48,WSW,256,7.0,14.0,51,0.00,,CLR,0.35,39.00,VWS V14.01,2013-11-18 20:20:00,
2013-11-18 15:30:00,56.5,37.6,29.49,WSW,255,9.0,14.0,49,0.00,,CLR,0.35,19.00,VWS V14.01,2013-11-18 20:30:00,
2013-11-18 15:40:00,56.9,37.4,29.49,WSW,245,7.0,15.0,48,0.00,,CLR,0.35,16.00,VWS V14.01,2013-11-18 20:40:00,
2013-11-18 15:50:00,54.4,39.5,29.49,West,271,7.0,12.0,57,0.00,,CLR,0.35,14.00,VWS V14.01,2013-11-18 20:50:00,
2013-11-18 16:00:00,54.5,36.8,29.49,West,271,5.0,16.0,51,0.00,,CLR,0.35,12.00,VWS V14.01,2013-11-18 21:00:00,
2013-11-18 16:10:00,53.3,39.3,29.49,West,271,6.0,14.0,59,0.00,,CLR,0.35,5.00,VWS V14.01,2013-11-18 21:10:00,
2013-11-18 16:20:00,53.8,39.8,29.50,West,274,8.0,13.0,59,0.00,,CLR,0.35,0.00,VWS V14.01,2013-11-18 21:20:00,
2013-11-18 16:30:00,53.8,39.4,29.51,West,275,6.0,15.0,58,0.00,,CLR,0.35,0.00,VWS V14.01,2013-11-18 21:30:00,
2013-11-18 16:40:00,53.3,38.5,29.51,West,278,6.0,10.0,57,0.00,,CLR,0.35,0.00,VWS V14.01,2013-11-18 21:40:00,
2013-11-18 16:50:00,52.6,39.5,29.52,West,274,4.0,9.0,61,0.00,,CLR,0.35,0.00,VWS V14.01,2013-11-18 21:50:00,
2013-11-18 17:00:00,53.2,37.9,29.52,WNW,303,6.0,10.0,56,0.00,,CLR,0.35,0.00,VWS V14.01,2013-11-18 22:00:00,
2013-11-18 17:10:00,52.6,37.4,29.52,WNW,283,3.0,11.0,56,0.00,,CLR,0.35,0.00,VWS V14.01,2013-11-18 22:10:00,
2013-11-18 17:20:00,51.7,37.8,29.52,WNW,286,6.0,9.0,59,0.00,,CLR,0.35,0.00,VWS V14.01,2013-11-18 22:20:00,
2013-11-18 17:30:00,51.3,37.5,29.52,WNW,296,2.0,10.0,59,0.00,,CLR,0.35,0.00,VWS V14.01,2013-11-18 22:30:00,
2013-11-18 17:40:00,50.1,37.2,29.52,WNW,296,2.0,4.0,61,0.00,,CLR,0.35,0.00,VWS V14.01,2013-11-18 22:40:00,
2013-11-18 17:50:00,49.8,36.9,29.52,WNW,296,0.0,2.0,61,0.00,,CLR,0.35,0.00,VWS V14.01,2013-11-18 22:50:00,
2013-11-18 18:00:00,47.3,38.4,29.52,WNW,296,0.0,0.0,71,0.00,,CLR,0.35,0.00,VWS V14.01,2013-11-18 23:00:00,
2013-11-18 18:10:00,46.7,39.2,29.52,WNW,296,0.0,0.0,75,0.00,,FEW090,0.35,0.00,VWS V14.01,2013-11-18 23:10:00,
2013-11-18 18:20:00,45.8,38.3,29.52,WNW,296,1.0,2.0,75,0.00,,FEW090,0.35,0.00,VWS V14.01,2013-11-18 23:20:00,
2013-11-18 18:30:00,44.9,39.1,29.53,WNW,296,1.0,3.0,80,0.00,,FEW090,0.35,0.00,VWS V14.01,2013-11-18 23:30:00,
2013-11-18 18:40:00,44.8,39.0,29.53,WNW,296,1.0,3.0,80,0.00,,FEW090,0.35,0.00,VWS V14.01,2013-11-18 23:40:00,
2013-11-18 18:50:00,44.9,38.5,29.54,WNW,296,0.0,3.0,78,0.00,,FEW090,0.35,0.00,VWS V14.01,2013-11-18 23:50:00,
2013-11-18 19:00:00,45.2,39.1,29.54,NNW,344,0.0,5.0,79,0.00,,FEW090,0.35,0.00,VWS V14.01,2013-11-19 00:00:00,
2013-11-18 19:10:00,45.7,38.2,29.54,North,359,0.0,2.0,75,0.00,,BKN110,0.35,0.00,VWS V14.01,2013-11-19 00:10:00,
2013-11-18 19:20:00,45.5,39.0,29.55,NW,304,2.0,4.0,78,0.00,,BKN110,0.35,0.00,VWS V14.01,2013-11-19 00:20:00,
2013-11-18 19:30:00,44.8,39.3,29.56,WSW,240,4.0,6.0,81,0.00,,BKN110,0.35,0.00,VWS V14.01,2013-11-19 00:30:00,
2013-11-18 19:40:00,47.1,36.7,29.56,West,275,11.0,14.0,67,0.00,,BKN110,0.35,0.00,VWS V14.01,2013-11-19 00:40:00,
2013-11-18 19:50:00,46.8,37.2,29.55,West,277,4.0,15.0,69,0.00,,BKN110,0.35,0.00,VWS V14.01,2013-11-19 00:50:00,
2013-11-18 20:00:00,46.1,37.9,29.56,West,277,0.0,6.0,73,0.00,,BKN110,0.35,0.00,VWS V14.01,2013-11-19 01:00:00,
2013-11-18 20:10:00,45.5,37.0,29.56,West,277,0.0,0.0,72,0.00,,BKN100,0.35,0.00,VWS V14.01,2013-11-19 01:10:00,
2013-11-18 20:20:00,45.2,36.4,29.55,West,277,0.0,0.0,71,0.00,,BKN100,0.35,0.00,VWS V14.01,2013-11-19 01:20:00,
2013-11-18 20:30:00,43.9,36.8,29.56,West,277,0.0,0.0,76,0.00,,BKN100,0.35,0.00,VWS V14.01,2013-11-19 01:30:00,
2013-11-18 20:40:00,43.2,37.1,29.56,West,270,2.0,7.0,79,0.00,,SCT110,0.35,0.00,VWS V14.01,2013-11-19 01:40:00,
2013-11-18 20:50:00,43.1,37.0,29.56,WSW,250,4.0,7.0,79,0.00,,SCT110,0.35,0.00,VWS V14.01,2013-11-19 01:50:00,
2013-11-18 21:00:00,43.8,36.7,29.56,WSW,250,4.0,5.0,76,0.00,,SCT110,0.35,0.00,VWS V14.01,2013-11-19 02:00:00,
2013-11-18 21:10:00,44.1,36.4,29.56,West,268,8.0,11.0,74,0.00,,CLR,0.35,0.00,VWS V14.01,2013-11-19 02:10:00,
2013-11-18 21:20:00,43.5,36.8,29.56,WSW,252,5.0,10.0,77,0.00,,CLR,0.35,0.00,VWS V14.01,2013-11-19 02:20:00,
2013-11-18 21:30:00,45.2,36.7,29.56,West,260,12.0,16.0,72,0.00,,CLR,0.35,0.00,VWS V14.01,2013-11-19 02:30:00,
2013-11-18 21:40:00,46.4,35.3,29.56,SW,232,16.0,19.0,65,0.00,,CLR,0.35,0.00,VWS V14.01,2013-11-19 02:40:00,
2013-11-18 21:50:00,46.1,34.2,29.56,SW,228,16.0,21.0,63,0.00,,CLR,0.35,0.00,VWS V14.01,2013-11-19 02:50:00,